STARLINK-33885 (63886 NORAD) Tracking and Keplerian Element Data

This shows tracking and keplerian element data for the satellite.

Feedback or suggestion? Click here.




ElementValue
Catalog63886
NameSTARLINK-33885
Epoch Orbit3519
Epoch Day353.49280626
Epoch Year2025
RAAN76.5343
Inclination70.0028
Eccentricity0.0003408
Argument of Perigee269.969
Mean Anonmoly90.1079
Mean Motion14.98329898
Decay Rate1.311E-05
L11 63886U 25094Y 25353.49280626 .00001311 00000+0 11763-3 0 9992
L22 63886 70.0028 76.5343 0003408 269.9690 90.1079 14.98329898 35199



Live tracking and technical data element details for STARLINK-33885 (NORAD 63886). STARLINK-33885 can be tracked NOW for your location showing map with azimuth and elevation plus other details from your city location.







IsCatalogInMostPopularTable: catalog: 63886, numindb: 2
Update: records affected: 1



GetName: 63886 STARLINK-33885

Hit Count: updated at: Tue, 10 Feb 2026 03:19:05 GMT